Weather History for KOMK - November, 2012

Change the Weather History Date:

Saturday, November 17, 2012

  Actual Average Record
Temperature  
Mean Temperature 40 °F 35 °F  
Max Temperature 42 °F 43 °F 54 °F (2009)
Min Temperature 37 °F 28 °F 8 °F (1961)
Degree Days  
Heating Degree Days 25 30  
Month to date heating degree days 420 449  
Since 1 July heating degree days 956 1109  
Cooling Degree Days 0 0  
Month to date cooling degree days 0 0  
Year to date cooling degree days 629 665  
Moisture  
Dew Point 37 °F    
Average Humidity 93    
Maximum Humidity 100    
Minimum Humidity 85    
Precipitation  
Precipitation 0.57 in 0.06 in 0.60 in (1941)
Month to date precipitation 1.24 1.05  
Year to date precipitation 13.34 11.75  
Sea Level Pressure  
Sea Level Pressure 29.68 in    
Wind  
Wind Speed 3 mph (SSW)    
Max Wind Speed 13 mph    
Max Gust Speed 16 mph    
Visibility 5 miles    
Events Fog , Rain    
T = Trace of Precipitation, MM = Missing Value Source: NWS Daily Summary

Daily Weather History Graph

Daily Weather History Graph

Search for Another Location

Airport or City:

Trip Planner

Search our weather history database for the weather conditions in past years. The results will help you decide how hot, cold, wet, or windy it might be!

Date:

Astronomy

Nov. 17, 2012 Rise Set
Actual Time 7:09 AM PST 4:16 PM PST
Civil Twilight 6:35 AM PST 4:50 PM PST
Nautical Twilight 5:56 AM PST 5:28 PM PST
Astronomical Twilight 5:19 AM PST 6:05 PM PST
Moon 10:58 AM PST (11/17) 8:33 PM PST (11/17)
Length of Visible Light 10h 15m
Length of Day
9h 06m
Waxing Crescent, 21% of the Moon is Illuminated
Nov 17
Waxing Crescent
Nov 20
First Quarter
Nov 28
Full
Dec 6
Last Quarter
Dec 13
New

Hourly Weather History & Observations

Time (PST) Temp. Windchill Dew Point Humidity Pressure Visibility Wind Dir Wind Speed Gust Speed Precip Events Conditions
12:25 AM 39.2 °F - 37.4 °F 93% 29.92 in 8.0 mi Calm Calm - N/A   Overcast
12:53 AM 37.9 °F - 37.0 °F 97% 29.94 in 8.0 mi Calm Calm - N/A   Overcast
1:53 AM 39.0 °F 36.8 °F 36.0 °F 89% 29.92 in 10.0 mi SW 3.5 mph - N/A   Overcast
2:40 AM 39.2 °F - 37.4 °F 93% 29.88 in 10.0 mi Calm Calm - N/A   Overcast
2:53 AM 39.0 °F - 37.0 °F 93% 29.91 in 8.0 mi Calm Calm - N/A   Overcast
3:53 AM 37.9 °F - 37.0 °F 97% 29.88 in 7.0 mi Calm Calm - N/A   Overcast
4:35 AM 37.4 °F - 37.4 °F 100% 29.84 in 8.0 mi Calm Calm - N/A   Overcast
4:53 AM 37.9 °F - 37.0 °F 97% 29.86 in 7.0 mi Calm Calm - N/A   Overcast
5:53 AM 37.9 °F - 36.0 °F 93% 29.83 in 8.0 mi Calm Calm - N/A   Overcast
6:01 AM 37.4 °F - 35.6 °F 93% 29.81 in 9.0 mi Calm Calm - N/A   Overcast
6:14 AM 37.4 °F 34.9 °F 35.6 °F 93% 29.80 in 7.0 mi West 3.5 mph - N/A   Overcast
6:24 AM 37.4 °F - 35.6 °F 93% 29.80 in 6.0 mi Calm Calm - N/A   Overcast
6:35 AM 37.4 °F 34.9 °F 35.6 °F 93% 29.80 in 4.0 mi SE 3.5 mph - N/A   Overcast
6:53 AM 37.0 °F - 36.0 °F 96% 29.83 in 3.0 mi Calm Calm - N/A   Overcast
7:53 AM 37.9 °F - 37.0 °F 97% 29.81 in 4.0 mi Calm Calm - 0.00 in Rain Light Rain
8:49 AM 39.2 °F - 37.4 °F 93% 29.75 in 6.0 mi Calm Calm - 0.00 in Rain Light Rain
8:53 AM 39.0 °F - 37.0 °F 93% 29.78 in 6.0 mi Calm Calm - 0.00 in Rain Light Rain
9:19 AM 39.2 °F - 37.4 °F 93% 29.75 in 2.5 mi Calm Calm - 0.02 in Rain Light Rain
9:27 AM 39.2 °F - 37.4 °F 93% 29.74 in 3.0 mi Calm Calm - 0.02 in Rain Light Rain
9:40 AM 39.2 °F 37.0 °F 37.4 °F 93% 29.74 in 3.0 mi SE 3.5 mph - 0.03 in Rain Light Rain
9:53 AM 37.9 °F - 37.0 °F 97% 29.76 in 2.5 mi Calm Calm - 0.04 in Rain Light Rain
10:04 AM 39.2 °F - 37.4 °F 93% 29.73 in 2.5 mi Calm Calm - 0.00 in Rain Light Rain
10:36 AM 39.2 °F - 37.4 °F 93% 29.71 in 2.0 mi Calm Calm - 0.04 in Rain Rain
10:43 AM 39.2 °F - 37.4 °F 93% 29.71 in 1.8 mi Calm Calm - 0.05 in Rain Rain
10:53 AM 39.0 °F - 37.0 °F 93% 29.73 in 3.0 mi Calm Calm - 0.07 in Rain Rain
11:03 AM 39.2 °F - 37.4 °F 93% 29.70 in 3.0 mi Calm Calm - 0.01 in Rain Rain
11:10 AM 39.2 °F - 37.4 °F 93% 29.69 in 2.5 mi Calm Calm - 0.03 in Rain Rain
11:15 AM 39.2 °F - 37.4 °F 93% 29.69 in 3.0 mi Calm Calm - 0.04 in Rain Rain
11:17 AM 39.2 °F - 37.4 °F 93% 29.69 in 2.5 mi Calm Calm - 0.04 in Rain Rain
11:25 AM 39.2 °F - 37.4 °F 93% 29.68 in 2.5 mi Calm Calm - 0.06 in Rain Rain
11:46 AM 39.2 °F - 37.4 °F 93% 29.66 in 3.0 mi Calm Calm - 0.09 in Rain Light Rain
11:53 AM 39.0 °F - 37.9 °F 96% 29.69 in 3.0 mi Calm Calm - 0.09 in Rain Light Rain
12:05 PM 39.2 °F - 37.4 °F 93% 29.65 in 4.0 mi Calm Calm - 0.01 in Rain Light Rain
12:13 PM 39.2 °F - 37.4 °F 93% 29.65 in 4.0 mi Calm Calm - 0.01 in Rain Light Rain
12:43 PM 39.2 °F - 37.4 °F 93% 29.63 in 4.0 mi Calm Calm - 0.03 in Rain Light Rain
12:53 PM 39.0 °F - 37.9 °F 96% 29.66 in 5.0 mi Calm Calm - 0.03 in Rain Light Rain
1:01 PM 39.2 °F - 37.4 °F 93% 29.63 in 4.0 mi Calm Calm - 0.01 in Rain Light Rain
1:08 PM 39.2 °F - 37.4 °F 93% 29.63 in 2.5 mi Calm Calm - 0.01 in Rain Light Rain
1:25 PM 39.2 °F - 37.4 °F 93% 29.62 in 4.0 mi Calm Calm - 0.03 in Rain Light Rain
1:53 PM 39.0 °F - 37.9 °F 96% 29.63 in 4.0 mi Calm Calm - 0.04 in Rain Light Rain
2:11 PM 39.2 °F - 37.4 °F 93% 29.60 in 3.0 mi Calm Calm - 0.01 in Rain Light Rain
2:27 PM 39.2 °F - 37.4 °F 93% 29.59 in 2.5 mi Calm Calm - 0.04 in Rain Rain
2:53 PM 39.0 °F - 37.9 °F 96% 29.62 in 1.8 mi Calm Calm - 0.10 in Rain Rain
3:00 PM 39.2 °F - 37.4 °F 93% 29.59 in 2.5 mi Calm Calm - 0.01 in Rain Rain
3:12 PM 39.2 °F - 37.4 °F 93% 29.59 in 1.8 mi Calm Calm - 0.04 in Rain Rain
3:53 PM 39.0 °F 36.8 °F 37.9 °F 96% 29.59 in 2.0 mi NW 3.5 mph - 0.14 in Rain Rain
4:02 PM 39.2 °F 35.0 °F 37.4 °F 93% 29.55 in 2.5 mi WNW 5.8 mph - 0.01 in Rain Light Rain
4:12 PM 39.2 °F 33.0 °F 37.4 °F 93% 29.55 in 5.0 mi WNW 9.2 mph - 0.02 in Rain Light Rain
4:43 PM 39.2 °F - 37.4 °F 93% 29.53 in 10.0 mi Calm Calm - 0.02 in   Overcast
4:53 PM 39.9 °F 36.7 °F 37.9 °F 93% 29.56 in 10.0 mi NNE 4.6 mph - 0.02 in   Overcast
5:31 PM 39.2 °F - 37.4 °F 93% 29.54 in 10.0 mi Calm Calm - N/A   Overcast
5:43 PM 39.2 °F 35.0 °F 37.4 °F 93% 29.54 in 1.5 mi SSW 5.8 mph - 0.00 in Rain Light Rain
5:46 PM 39.2 °F 35.9 °F 37.4 °F 93% 29.54 in 0.8 mi SSW 4.6 mph - 0.00 in Rain Light Rain
5:53 PM 39.0 °F 34.0 °F 37.9 °F 96% 29.56 in 0.5 mi South 6.9 mph - 0.00 in Fog , Rain Light Rain
5:57 PM 39.2 °F 35.9 °F 37.4 °F 93% 29.54 in 1.2 mi South 4.6 mph - 0.00 in Rain Light Rain
6:00 PM 39.2 °F 37.0 °F 37.4 °F 93% 29.54 in 4.0 mi SSW 3.5 mph - 0.00 in Rain Light Rain
6:22 PM 39.2 °F - 39.2 °F 100% 29.53 in 10.0 mi Calm Calm - 0.00 in Rain Light Rain
6:33 PM 39.2 °F - 39.2 °F 100% 29.53 in 10.0 mi Calm Calm - 0.00 in Rain Light Rain
6:53 PM 39.9 °F 37.8 °F 39.0 °F 97% 29.56 in 5.0 mi SSW 3.5 mph - 0.01 in Rain Light Rain
7:11 PM 39.2 °F 35.0 °F 37.4 °F 93% 29.53 in 5.0 mi SE 5.8 mph - 0.02 in Rain Light Rain
7:53 PM 39.9 °F 34.5 °F 39.0 °F 97% 29.56 in 7.0 mi South 8.1 mph - 0.03 in Rain Light Rain
8:53 PM 39.9 °F 35.1 °F 39.0 °F 97% 29.57 in 10.0 mi South 6.9 mph - 0.00 in   Overcast
9:03 PM 39.2 °F 35.0 °F 39.2 °F 100% 29.55 in 10.0 mi South 5.8 mph - N/A   Overcast
9:53 PM 39.9 °F 35.1 °F 39.0 °F 97% 29.57 in 10.0 mi SSW 6.9 mph - 0.00 in   Overcast
10:28 PM 42.8 °F 36.6 °F 39.2 °F 87% 29.58 in 10.0 mi SSW 11.5 mph - N/A   Overcast
10:53 PM 41.0 °F 35.2 °F 39.0 °F 93% 29.62 in 10.0 mi South 9.2 mph - N/A   Overcast
11:31 PM 41.0 °F 35.8 °F 37.4 °F 87% 29.61 in 10.0 mi SSW 8.1 mph - N/A   Scattered Clouds
11:48 PM 41.0 °F 35.2 °F 37.4 °F 87% 29.62 in 10.0 mi SSW 9.2 mph - N/A   Mostly Cloudy
11:53 PM 41.0 °F 35.2 °F 37.9 °F 89% 29.65 in 10.0 mi South 9.2 mph - N/A   Mostly Cloudy